Home   Weather   Versoix   Past weeks

Flag for Switzerland Past Weather in Versoix, Geneva, Switzerland — Yesterday and Last 2 Weeks

Now
63 °F

Passing clouds.


Feels Like: 63 °F
Forecast: 39 / 70 °F
Wind: 13 mph from Northeast

Location: Geneve-Cointrin

Current Time: Apr 23, 2017 at 5:58:01 pm

Latest Report: Apr 23, 2017 at 5:00 pm


Visibility: 31 mi

Pressure: 30.06 "Hg

Humidity: 32%

Dew Point: 33 °F

Location of VersoixLocation

Past Weather in Versoix — Graph

°F

Versoix Temperature Yesterday

Maximum temperature yesterday: 69 °F (at 6:00 pm)
Minimum temperature yesterday: 32 °F (at 6:00 am)
Average temperature yesterday: 51 °F

High & Low Weather Summary for the Past Weeks

 TemperatureHumidityPressure
High76 °F (Apr 10, 5:00 pm)91% (Apr 11, 5:00 am)30.50 "Hg (Apr 11, 5:00 am)
Low32 °F (Apr 22, 6:00 am)13% (Apr 21, 7:00 pm)29.90 "Hg (Apr 13, 5:00 pm)
Average52 °F55%30.19 "Hg
* Reported Apr 8 4:00 pm — Apr 23 4:00 pm, Versoix, Weather by CustomWeather, © 2017

Note: Actual official high and low records may vary slightly from our data, if they occured in-between our weather recording intervals... More about our weather records

Advertising

Versoix Weather History for the Previous 24 Hours

Scroll right to see more
 ConditionsComfort  
Time TempWeatherWind HumidityBarometerVisibility
4:00 pm
Sun, Apr 23
64 °FMild.13 mph28%30.07 "HgN/A
3:00 pm62 °FRefreshingly cool.13 mph35%30.10 "HgN/A
2:00 pm61 °FPassing clouds.13 mph44%30.12 "Hg22 mi
1:00 pm60 °FRefreshingly cool.14 mph47%30.14 "HgN/A
12:00 pm55 °FRefreshingly cool.13 mph54%30.17 "HgN/A
11:00 am54 °FPassing clouds.13 mph57%30.18 "Hg14 mi
10:00 am53 °FCool.17 mph63%30.19 "HgN/A
9:00 am49 °FCool.3 mph69%30.20 "HgN/A
8:00 am44 °FPassing clouds.1 mph81%30.22 "Hg16 mi
7:00 am38 °FChilly.2 mph86%30.22 "HgN/A
6:00 am39 °FChilly.3 mph82%30.22 "HgN/A
5:00 am39 °FChilly.2 mph86%30.22 "HgN/A
4:00 am41 °FQuite cool.1 mph85%30.21 "HgN/A
3:00 am43 °FQuite cool.2 mph82%30.21 "HgN/A
2:00 am46 °FCool.1 mph75%30.22 "HgN/A
1:00 am49 °FCool.5 mph69%30.21 "HgN/A
12:00 am52 °FCool.8 mph60%30.20 "HgN/A
11:00 pm
Sat, Apr 22
53 °FPassing clouds.13 mph56%30.19 "Hg37 mi
10:00 pm55 °FRefreshingly cool.14 mph51%30.16 "HgN/A
9:00 pm58 °FRefreshingly cool.10 mph47%30.13 "HgN/A
8:00 pm61 °FPassing clouds.6 mph41%30.10 "Hg37 mi
7:00 pm65 °FMild.7 mph35%30.08 "HgN/A
6:00 pm69 °FMild.5 mph25%30.08 "HgN/A
5:00 pm68 °FPassing clouds.6 mph23%30.09 "Hg37 mi
Weather by CustomWeather, © 2017

See weather overviewHow to use our weather pages